Regional Weather Roundup
Issued by NWS

Home | Current Version | Previous Version | Text Only | Print | Product List | Glossary Off
Versions: 1 2 3 4 5 6 7 8 9 10 11 12 13 14 15 16 17 18 19 20 21 22 23 24 25 26 27 28 29 30 31 32 33 34 35 36 37 38 39 40 41 42 43 44 45 46 47 48 49 50

000
ASUS43 KFSD 251410
RWRSD

WEATHER ROUNDUP FOR SOUTH DAKOTA
NATIONAL WEATHER SERVICE SIOUX FALLS SD
900 AM CDT SAT MAR 25 2017

NOTE: "FAIR" INDICATES FEW OR NO CLOUDS BELOW 12,000 FEET WITH NO
SIGNIFICANT WEATHER AND/OR OBSTRUCTIONS TO VISIBILITY.


SDZ001>005-009-010-012>017-251500-
NORTHWEST AND NORTH CENTRAL SOUTH DAKOTA

CITY           SKY/WX    TMP DP  RH WIND       PRES   REMARKS
BUFFALO          N/A     37  31  78 S6        29.84S
FAITH            N/A     33  32  96 SE21G26   29.95F WCI  21
MOBRIDGE       CLOUDY    33  30  88 SE16      30.04R FOG     WCI  23
$$

SDZ012>016-024>037-041>051-057-063-072>074-251500-
SOUTHWEST AND SOUTH CENTRAL SOUTH DAKOTA

CITY           SKY/WX    TMP DP  RH WIND       PRES   REMARKS
RAPID CTY ARPT CLOUDY    41  31  67 SE12      29.94F
PIERRE         FOG       31  31 100 SE18      30.06S VSB 1/4 WCI  19
CUSTER         CLOUDY    39  26  59 W5        29.97R
ELLSWORTH AFB  CLOUDY    40  30  66 S12       29.93S
PHILIP         CLOUDY    31  29  92 E8        30.00F WCI  23
PINE RIDGE     CLOUDY    44  32  62 S14       29.99S
SPEARFISH      FAIR      43  32  65 CALM      29.92R
WINNER         FOG       32  31  96 SE9       30.09S VSB 1/2 WCI  24
$$

SDZ004>011-016>023-039-040-251500-
NORTHEAST SOUTH DAKOTA

CITY           SKY/WX    TMP DP  RH WIND       PRES   REMARKS
ABERDEEN       CLOUDY    32  28  85 SE12      30.14S WCI  23
WATERTOWN      CLOUDY    31  29  92 SE9       30.12S FOG     WCI  23
BROOKINGS      CLOUDY    32  31  96 E10       30.13R FOG     WCI  24
SISSETON         N/A     34  32  92 S12       30.16S WCI  25
$$

SDZ017-020-022-023-036>040-048>070-251500-
SOUTHEAST SOUTH DAKOTA

CITY           SKY/WX    TMP DP  RH WIND       PRES   REMARKS
SIOUX FALLS    CLOUDY    36  35  96 NE15      30.12S FOG
HURON          CLOUDY    33  31  92 SE9       30.14R WCI  25
CHAMBERLAIN    CLOUDY    36  34  94 E6        30.12S
MITCHELL       CLOUDY    34  32  92 E7        30.15S FOG     WCI  28
YANKTON        CLOUDY    36  34  93 N9        30.11S
$$

ABBREVIATIONS USED IN REMARKS
   TC - TEMPERATURE IN CELSIUS
  WCI - WIND CHILL INDEX
   HX - HEAT INDEX
  VSB - VISIBILITY





USA.gov is the U.S. government's official web portal to all federal, state and local government web resources and services.